Location: Bouchavesnes-Bergen
(49.9859°N, 2.9203°E)
Time: 15:34:16
(UTC+00:00)

NOAA 16 DEB - Pass Details

Date: 25 September 2021
Orbit: 798 x 841 km, 98.8° (Epoch: 25 October)

Event Time Altitude Azimuth Distance (km) Brightness Sun altitude
Exits shadow 23:35:25 15° 328° (NNW) 2,048 ? -41.2°
Drops below altitude 10° 23:36:23 10° 333° (NNW) 2,392 ? -41.3°
Sets 23:38:51 0° 340° (NNW) 3,323 ? -41.3°
